Find Starlink 32483

NORAD ID: 61856 Int'l Des: 2024-202 Owner: SPXS Country: US Constellation: starlink operational
LEOCIRCULAR

Live-Position

3D-Globus wird geladen...

Über Starlink 32483

Beschreibung wird geladen...

Nächste Überflüge

Passes for default location (London). Set your location on the main map for personalized predictions.

Höhenverlauf

Loading altitude history...

Zweizeiliger Elementsatz

1 61856U 24202M 26126.39050662 -.00001102 00000-0 -30557-4 0 9994
2 61856 43.0024 272.0022 0001031 226.3908 133.6859 15.27563800 84162
Epoch: 6. Mai 2026 • Age: 11 hours

Aktueller Status

Höhe 495.8 km
Geschwindigkeit 7.62 km/s
Subsatellitenpunkt -42.86°S, 23.3°E
Startdatum 7. Nov. 2024
Alter 1.4 years
Typ internet

Technische Details

Klassifizierung Payload
Masse 730.00 kg
Trockenmasse 700.00 kg
Gesamtmasse 730.00 kg
Länge 0.30 m
Durchmesser 4.10 m
Spannweite 29.00 m
Form Box + pan
Hersteller SPXS
Bus-Typ Starlink V2M
Phasenstatus In Orbit
Besitzer/Staat SPXS/US

Most Searched